Home   Weather   Karachi   Past weeks

Flag for Pakistan Past Weather in Karachi, Sindh, Pakistan — Yesterday and Last 2 Weeks

Now
84 °F

Broken clouds.


Feels Like: 94 °F
Forecast: 85 / 92 °F
Wind: No wind

Location: Karachi Airport

Current Time: Jun 29, 2017 at 7:14:56 am

Latest Report: Jun 29, 2017 at 5:55 am


Visibility: 4 mi

Pressure: 29.47 "Hg

Humidity: 79%

Dew Point: 77 °F

Location of KarachiLocation

Past Weather in Karachi — Graph

°F

Karachi Temperature Yesterday

Maximum temperature yesterday: 99 °F (at 1:25 pm)
Minimum temperature yesterday: 79 °F (at 6:55 pm)
Average temperature yesterday: 89 °F

High & Low Weather Summary for the Past Weeks

 TemperatureHumidityPressure
High100 °F (Jun 26, 11:55 am)89% (Jun 28, 9:55 pm)29.68 "Hg (Jun 28, 9:55 pm)
Low79 °F (Jun 16, 1:25 am)13% (Jun 28, 12:55 pm)29.39 "Hg (Jun 25, 5:25 pm)
Average89 °F65%29.52 "Hg
* Reported Jun 14 5:55 am — Jun 29 5:55 am, Karachi. Weather by CustomWeather, © 2017

Note: Actual official high and low records may vary slightly from our data, if they occured in-between our weather recording intervals... More about our weather records

Advertising

Karachi Weather History for the Previous 24 Hours

Scroll right to see more
 ConditionsComfort  
Time TempWeatherWind HumidityBarometerVisibility
5:55 am
Thu, Jun 29
84 °FBroken clouds.No wind79%29.47 "Hg4 mi
4:55 am84 °FPartly cloudy.8 mph79%29.47 "Hg4 mi
4:25 am84 °FPartly cloudy.6 mph79%29.47 "Hg4 mi
3:55 am84 °FPartly cloudy.9 mph79%29.47 "Hg4 mi
3:25 am82 °FPartly cloudy.9 mph84%29.47 "Hg4 mi
2:55 am82 °FPartly cloudy.6 mph84%29.47 "Hg4 mi
2:25 am82 °FPartly cloudy.6 mph84%29.47 "Hg4 mi
1:55 am82 °FPartly cloudy.No wind84%29.47 "Hg4 mi
1:25 am82 °FPartly cloudy.No wind84%29.47 "Hg4 mi
12:55 am82 °FPartly cloudy.No wind84%29.47 "Hg4 mi
12:25 am81 °FPartly cloudy.No wind89%29.47 "Hg4 mi
11:55 pm
Wed, Jun 28
81 °FPartly cloudy.No wind89%29.47 "Hg4 mi
11:25 pm81 °FPartly cloudy.No wind89%29.47 "Hg4 mi
10:25 pm81 °FLight rain. Mostly cloudy.No wind89%29.50 "Hg3 mi
9:55 pm81 °FThunderstorms. Mostly cloudy.7 mph89%29.50 "Hg2 mi
7:55 pm81 °FThunderstorms. Mostly cloudy.5 mph84%29.50 "Hg3 mi
6:55 pm79 °FThunderstorms. More clouds than sun.9 mph84%29.47 "Hg1 mi
5:55 pm81 °FThunderstorms. Cloudy.12 mph74%29.45 "Hg3 mi
4:55 pm95 °FBroken clouds.12 mph56%29.39 "Hg4 mi
3:55 pm97 °FExtremely hot.No wind53%29.42 "HgN/A
2:55 pm99 °FBroken clouds.No wind42%29.45 "Hg3 mi
1:55 pm97 °FBroken clouds.No wind44%29.45 "Hg3 mi
1:25 pm99 °FBroken clouds.No wind42%29.45 "Hg3 mi
12:55 pm95 °FBroken clouds.No wind13%29.47 "Hg3 mi
12:25 pm95 °FBroken clouds.No wind53%29.47 "Hg3 mi
12:00 pm95 °FBroken clouds.No wind50%29.47 "Hg3 mi
10:55 am91 °FBroken clouds.No wind52%29.47 "Hg3 mi
10:25 am91 °FPartly sunny.No wind52%29.47 "Hg3 mi
9:55 am91 °FPartly sunny.No wind63%29.47 "Hg3 mi
8:55 am90 °FBroken clouds.No wind71%29.47 "Hg4 mi
8:25 am90 °FBroken clouds.No wind67%29.47 "Hg4 mi
7:55 am90 °FBroken clouds.No wind67%29.50 "Hg4 mi
7:25 am88 °FBroken clouds.No wind75%29.50 "Hg4 mi
Weather by CustomWeather, © 2017

See weather overviewHow to use our weather pages